Theta_e
323 324 324 322 323 323 320 319 319 320 322 320 319 320 323 320 316 321 324 326 330 328 331 337 332 330 334 334 336 336 334 337 336 336 338 338 339 341 342 343 343 344 345 345 346 346 345 345 344 345 344 344 344 343 344 344 344 345 346 345 346 345 346
322 321 323 322 322 324 321 318 319 320 321 321 321 318 318 317 316 320 323 322 323 324 331 342 337 334 335 335 337 338 335 336 336 336 337 337 338 339 340 342 342 343 344 344 345 345 344 344 344 343 343 343 344 344 344 344 344 345 345 345 346 346 346
322 321 322 322 321 320 320 321 322 322 320 318 319 319 318 318 318 319 321 324 324 324 332 342 337 335 339 336 337 338 337 337 336 336 338 337 337 338 338 340 341 342 342 343 344 344 344 344 343 343 343 343 344 344 344 344 344 343 344 344 345 346 346
322 322 321 320 319 320 321 321 320 322 322 318 318 320 320 319 319 320 320 319 322 326 336 342 339 339 340 336 337 339 337 337 336 337 338 338 338 337 337 338 339 340 341 342 343 342 343 343 343 343 343 344 344 344 344 344 344 344 345 346 345 345 346
320 320 321 320 320 320 319 319 318 317 319 319 318 319 320 319 319 321 318 315 321 334 341 341 342 342 339 336 337 338 336 335 336 337 338 339 339 338 338 338 338 339 340 341 341 341 342 342 343 343 343 344 344 344 344 344 344 345 346 346 345 345 346
317 320 322 322 323 322 320 320 318 317 318 318 317 317 319 319 319 324 322 314 320 337 341 340 344 346 341 337 336 336 335 333 335 337 337 338 339 339 339 339 338 338 338 340 340 341 342 342 343 343 343 343 343 344 344 344 344 345 345 345 345 345 346
320 323 323 322 322 323 322 322 321 320 320 318 316 317 319 319 318 324 325 316 321 338 341 338 344 347 341 333 332 335 333 331 335 337 337 339 339 339 340 339 339 339 338 339 340 340 341 341 342 343 343 343 344 343 344 344 345 345 345 345 345 346 346
323 323 324 323 324 322 321 322 322 320 320 319 318 321 324 321 317 320 320 315 320 336 343 339 338 338 333 328 328 331 331 331 334 335 336 338 338 338 339 339 340 339 338 339 339 339 341 341 342 343 343 343 343 343 344 344 344 344 345 346 346 346 347
319 319 322 321 322 322 322 323 323 321 321 320 319 323 324 320 318 320 318 315 323 341 347 340 335 334 335 332 327 326 329 330 332 334 335 336 337 337 339 339 340 340 339 340 339 339 340 340 342 342 343 343 343 343 344 344 344 344 345 346 346 347 347
318 318 322 323 322 322 323 324 323 322 322 320 319 320 318 318 323 321 316 319 334 346 340 332 332 335 336 334 327 325 329 330 330 333 333 334 336 336 337 338 339 340 340 341 340 340 340 340 341 342 342 343 343 343 344 344 344 345 345 346 347 347 347
321 321 324 325 323 322 321 321 322 323 323 321 320 318 316 322 327 320 319 327 331 330 328 329 334 335 334 335 331 325 327 329 330 332 331 333 334 334 336 338 338 339 340 341 341 341 341 340 340 342 341 342 343 343 343 344 344 345 345 346 347 347 348
322 322 322 322 322 322 322 321 321 322 323 322 320 318 320 328 325 316 326 338 327 323 332 335 337 340 339 342 336 325 323 326 327 329 330 331 331 331 334 335 337 339 339 340 341 341 342 341 341 341 342 342 343 343 343 344 345 345 346 346 347 348 348
320 319 320 320 321 322 322 322 321 320 322 322 319 320 324 329 322 316 329 340 329 329 338 337 340 344 338 336 332 324 324 326 325 326 327 328 327 328 331 333 336 338 338 340 341 341 342 342 342 342 342 342 343 343 343 344 345 345 345 346 347 347 348
319 318 320 322 321 321 322 322 321 320 321 321 320 322 324 325 323 322 332 339 332 329 334 335 334 331 326 327 327 324 326 327 327 327 326 327 328 328 329 331 334 336 338 339 340 341 342 342 343 343 342 342 343 343 344 344 344 345 346 346 347 347 348
320 319 321 321 320 321 321 321 321 320 320 321 320 321 323 323 324 324 328 334 333 332 335 334 326 320 321 326 327 325 326 326 327 330 329 329 330 329 329 331 333 335 337 339 340 341 342 342 343 343 343 343 343 343 344 344 344 345 346 346 347 347 347
322 321 320 319 319 321 321 321 323 322 320 320 320 322 324 323 324 325 324 325 328 333 336 333 325 322 326 330 326 323 325 328 329 331 332 330 329 329 330 330 332 334 336 338 340 340 341 342 343 343 343 344 344 344 344 344 344 345 346 346 346 347 347
325 321 318 318 321 322 321 320 322 322 321 322 321 321 325 325 324 324 323 322 326 332 334 332 328 328 330 330 323 319 323 327 328 329 329 328 328 328 330 331 332 334 335 336 338 339 340 342 342 342 343 343 344 344 344 345 345 346 346 346 346 347 347
325 321 318 321 324 324 323 321 323 326 323 322 323 322 324 325 325 324 325 326 328 330 330 331 329 328 328 327 325 326 329 327 327 329 327 328 329 327 330 334 334 335 335 336 337 339 339 340 341 342 343 343 344 344 344 345 345 346 346 346 347 347 348
325 323 322 326 327 325 323 321 325 330 328 322 323 324 324 325 325 324 326 328 329 330 329 327 325 326 330 335 338 340 340 336 333 333 332 332 334 333 335 338 338 338 337 336 337 339 339 340 341 342 342 343 343 344 345 346 346 346 346 346 347 348 348
325 326 327 328 327 324 324 326 331 336 338 335 331 325 321 324 325 325 326 327 329 332 328 321 321 328 337 345 348 346 345 342 338 337 336 337 338 338 340 341 341 339 338 337 339 340 340 341 341 341 342 343 344 345 345 346 346 346 347 347 348 348 348
324 326 327 327 324 324 331 338 336 336 338 337 336 335 331 331 331 328 325 325 330 334 328 321 327 339 345 350 352 348 347 347 344 342 342 342 341 341 342 343 343 342 339 338 339 341 341 341 341 342 342 342 344 345 345 346 347 347 347 348 348 348 348
323 323 324 326 326 328 334 337 333 332 333 333 334 335 337 339 342 336 325 322 332 338 336 332 336 343 347 353 354 349 348 350 348 347 346 345 345 344 343 343 343 342 342 341 340 341 341 342 342 343 343 343 343 344 345 346 346 347 348 348 348 348 349
323 322 322 324 326 330 335 334 331 331 332 333 332 332 332 338 345 339 330 324 331 337 340 341 342 341 343 355 359 351 348 349 349 348 348 347 346 345 344 344 343 342 343 344 343 343 342 342 343 343 343 343 344 344 346 347 347 347 347 347 347 348 348
322 323 324 324 324 328 333 332 332 331 332 332 331 328 330 337 339 337 336 331 328 330 335 339 344 342 340 348 354 351 348 349 348 347 346 346 345 344 343 343 342 341 341 342 345 346 345 345 345 345 344 345 344 345 346 347 347 347 346 346 347 347 348
319 322 323 325 328 333 334 332 331 331 332 330 327 329 334 334 334 338 340 336 327 327 333 337 341 345 343 344 350 351 350 350 350 348 346 346 345 344 344 343 343 342 341 341 343 344 345 346 346 347 347 347 346 346 346 346 347 346 346 347 348 349 350
320 323 324 326 330 332 331 331 330 330 333 333 332 331 331 330 334 342 344 341 334 330 334 337 341 346 347 349 351 352 351 351 351 349 348 348 347 347 347 345 343 342 342 342 341 341 341 343 345 347 349 349 348 348 346 346 347 346 347 348 349 349 350
325 329 329 329 333 332 330 333 334 332 333 335 331 328 330 333 338 342 343 343 341 338 339 342 344 347 349 350 351 351 351 351 351 349 348 347 345 344 344 344 345 346 345 344 344 343 343 343 343 345 347 349 351 350 349 349 349 348 349 349 350 350 351
330 334 332 331 334 332 329 333 336 332 329 329 327 328 331 334 336 337 340 343 343 342 343 344 344 345 346 347 347 347 347 348 348 348 348 347 345 342 341 343 346 347 345 345 346 346 345 345 344 345 346 349 351 352 352 352 352 352 352 351 352 352 352
331 335 336 333 332 330 328 329 330 328 327 327 326 326 328 330 331 333 336 340 341 341 342 342 342 342 343 344 344 345 345 345 344 343 343 343 342 342 342 344 345 344 346 346 346 347 347 346 346 346 347 350 352 354 355 354 354 354 354 354 354 354 354
330 332 334 332 331 330 328 327 327 327 327 327 325 324 325 327 328 330 333 336 337 338 340 340 341 341 341 343 344 344 344 343 341 340 338 337 336 335 336 338 338 338 342 345 345 347 348 347 347 347 347 348 350 351 352 353 354 354 355 356 357 356 356
330 331 332 333 331 329 327 327 327 327 327 327 325 324 325 327 328 330 332 334 335 336 337 339 339 340 340 340 341 341 341 341 341 340 340 339 339 338 336 335 333 332 333 334 335 338 342 344 346 347 347 347 347 347 348 348 348 349 351 353 355 357 358
329 333 333 332 330 328 326 326 326 326 327 327 326 324 325 328 329 329 330 333 334 334 335 336 337 338 338 338 338 338 339 339 339 340 341 341 343 345 345 345 343 341 340 339 338 337 338 340 342 345 347 348 347 347 346 345 345 345 346 349 352 356 358
326 332 331 331 331 330 327 326 325 325 326 327 327 326 325 326 329 331 331 332 332 332 332 334 335 336 337 338 338 338 338 338 339 339 339 339 341 343 345 346 346 346 345 345 345 345 344 344 344 345 347 347 347 347 346 346 345 345 346 347 350 353 356
325 332 332 331 334 333 328 326 326 327 327 326 326 326 325 324 326 330 332 334 334 333 332 332 333 334 336 338 339 339 340 340 340 340 340 340 340 341 342 343 344 345 344 344 345 345 346 346 346 345 345 345 346 345 345 344 344 344 344 345 346 348 351
326 331 331 328 330 331 328 326 327 328 328 325 324 325 326 325 325 326 330 335 337 337 334 331 331 334 338 339 340 341 341 342 342 341 341 340 340 340 341 342 342 342 343 343 344 344 344 344 344 343 343 343 342 342 342 342 342 342 342 343 343 344 345
322 327 328 327 328 329 327 326 327 328 327 324 324 325 325 325 325 325 327 330 334 336 334 329 329 335 341 342 342 343 342 342 342 341 340 340 340 340 341 341 342 342 342 343 343 343 343 343 342 342 342 342 342 342 342 342 342 343 343 343 343 344 345
322 327 329 327 326 326 326 326 327 328 325 324 325 326 325 324 324 324 324 325 328 331 330 326 326 334 341 343 343 343 343 343 343 342 341 342 342 341 341 341 342 342 342 341 341 340 340 341 341 342 342 341 341 340 340 341 342 342 343 343 343 343 343
Wind_Speed
11 14 10 10 9 5 3 5 7 6 6 7 4 5 3 1 3 4 3 3 5 4 5 6 6 9 10 13 17 19 26 33 30 25 28 35 39 43 47 50 53 54 54 54 54 55 55 55 55 56 56 56 56 55 54 54 53 53 52 52 51 50 49
11 13 13 10 11 10 6 6 7 3 5 4 4 2 3 3 5 5 2 4 5 3 5 4 5 7 10 11 12 14 21 27 25 24 29 35 39 44 48 51 53 53 53 54 55 56 56 56 57 57 57 57 56 56 55 54 54 53 53 52 52 51 50
7 7 10 5 7 10 6 5 7 5 3 4 3 3 5 4 5 4 3 5 5 6 5 3 6 10 11 11 11 12 15 18 20 26 31 35 38 41 44 48 50 50 52 55 56 57 57 57 57 57 57 57 56 56 56 56 55 53 52 52 51 51 50
6 5 6 6 6 7 2 3 5 4 3 4 4 4 4 4 4 4 3 5 5 6 6 6 9 12 12 12 12 12 14 17 24 29 32 35 37 39 43 48 50 51 53 56 58 58 58 57 57 57 56 55 56 56 56 56 56 54 53 53 52 52 51
5 4 5 9 10 8 5 4 5 4 2 2 3 2 3 4 4 4 3 5 6 5 6 9 11 12 13 13 12 11 14 21 29 34 36 38 39 42 44 47 50 53 55 55 57 59 58 57 56 56 54 54 55 55 55 56 56 55 55 55 54 53 52
3 4 8 13 15 12 9 7 7 7 4 4 4 4 3 3 4 5 3 6 8 5 5 8 10 10 11 12 12 10 13 22 29 34 38 39 39 41 43 46 49 51 53 54 55 56 57 55 54 53 53 53 53 54 55 55 55 55 56 56 55 54 53
4 6 8 11 13 14 12 9 8 8 6 5 6 7 4 3 3 2 3 5 9 5 7 8 9 9 10 12 12 10 15 24 28 31 36 38 38 41 42 43 45 46 50 53 52 53 54 54 54 53 52 52 53 54 55 55 55 56 56 56 55 54 54
3 6 6 5 4 6 9 8 7 8 8 8 7 6 4 4 4 3 2 7 8 4 5 8 7 7 7 10 14 14 17 23 26 29 35 37 38 40 38 37 39 40 44 47 47 49 52 54 54 53 52 53 54 54 54 54 55 56 56 56 55 55 54
4 4 5 5 4 2 4 5 7 10 11 11 7 3 4 3 7 8 6 8 7 4 3 4 6 6 6 9 13 16 17 19 21 25 30 33 34 36 35 36 37 38 40 44 46 48 50 53 54 53 54 54 54 55 55 55 56 56 55 55 55 55 55
7 5 5 4 2 3 4 4 8 12 13 15 10 4 4 6 7 9 8 8 6 6 4 4 6 6 6 9 10 12 16 18 19 20 23 26 28 31 34 37 39 39 40 44 47 49 50 51 53 53 54 55 55 55 55 56 56 55 55 55 55 55 55
3 2 5 4 3 4 5 3 7 11 12 15 12 8 8 7 5 7 10 7 5 6 5 5 7 6 7 9 7 9 16 20 20 20 22 23 24 26 30 34 37 39 39 43 47 49 50 51 52 53 54 55 55 55 56 56 55 54 54 54 55 55 54
3 4 10 11 7 5 7 8 8 11 12 14 15 13 10 8 6 11 11 7 7 8 7 7 8 7 7 8 8 11 16 19 20 20 22 24 24 24 27 31 34 37 39 43 46 48 50 50 51 52 54 55 55 56 56 55 54 54 54 54 54 54 54
7 6 11 13 8 6 8 10 12 12 13 17 19 17 11 10 11 14 10 9 9 8 7 9 9 9 9 10 12 15 16 17 18 18 20 23 24 24 27 29 32 35 38 42 45 48 49 49 50 51 52 53 54 54 55 54 54 53 53 53 54 54 55
9 8 9 9 7 6 8 11 12 14 16 18 20 17 13 13 14 13 7 10 11 9 8 10 12 12 11 9 10 11 13 16 19 19 19 21 21 21 23 27 29 32 36 40 43 46 48 48 49 51 51 52 54 54 54 54 54 53 53 53 53 54 55
7 8 7 8 9 9 10 11 12 14 17 18 17 15 13 11 12 11 8 8 9 8 6 9 12 11 6 4 7 11 15 17 19 18 19 19 19 20 22 25 27 30 33 37 41 44 46 48 49 50 51 52 53 53 53 53 54 53 53 53 53 54 55
5 6 6 11 15 13 11 14 14 13 14 13 11 10 10 11 11 11 11 9 7 7 6 8 12 9 5 6 9 12 15 17 17 18 19 20 20 21 22 24 25 27 31 36 40 42 45 47 48 49 49 50 51 52 52 53 53 52 52 53 54 54 54
4 7 7 10 12 10 9 12 10 10 11 10 8 7 9 13 13 11 11 10 8 8 8 7 10 10 9 10 10 9 11 13 16 18 21 22 23 22 23 24 25 25 28 33 38 41 43 45 46 46 47 48 49 50 51 52 51 51 52 52 53 54 54
4 9 9 7 5 5 7 5 4 5 11 12 12 11 9 11 12 11 9 8 9 10 9 10 13 13 9 8 8 6 8 12 15 18 21 22 24 24 24 25 26 25 25 29 34 38 41 42 43 44 46 47 46 47 48 49 50 51 52 52 53 54 53
3 7 6 3 7 7 6 9 9 7 8 9 12 16 14 13 13 12 9 8 10 11 11 14 16 13 7 6 5 5 6 9 12 15 17 18 20 22 21 21 22 22 21 25 30 34 37 39 40 42 44 44 45 46 47 48 49 50 50 52 52 53 53
1 3 2 4 8 8 11 10 8 8 6 4 3 12 16 13 11 11 11 10 10 10 11 13 14 13 12 9 7 5 5 6 8 10 11 11 13 15 15 15 16 16 17 21 25 29 32 35 37 39 41 42 44 45 46 46 47 47 48 50 51 51 51
3 3 5 5 7 11 8 4 4 5 4 4 3 4 10 8 8 10 10 11 11 8 6 9 14 16 12 6 5 4 5 6 7 6 5 3 4 6 8 9 10 11 13 17 21 24 28 30 32 35 37 39 40 41 43 44 44 45 47 48 48 49 50
4 3 5 3 4 6 3 1 4 3 3 4 4 3 5 7 7 9 11 12 12 6 4 9 14 14 8 3 3 4 6 8 9 9 7 6 5 3 1 3 5 6 9 12 16 20 24 26 28 30 32 35 36 38 41 42 42 43 46 47 46 47 49
4 4 5 4 3 5 4 4 8 8 7 4 4 3 5 5 4 5 8 12 12 9 9 12 13 10 5 5 6 6 8 10 13 13 12 12 12 11 9 7 5 2 1 5 9 13 16 19 21 22 25 28 31 34 37 39 40 43 45 45 45 45 46
6 6 5 4 4 4 3 6 10 14 13 3 5 5 6 6 12 14 9 10 12 14 16 16 12 7 7 8 9 11 12 12 13 15 15 15 16 15 14 14 12 10 7 4 4 7 9 10 11 12 15 18 23 28 32 36 39 42 43 43 43 43 44
7 8 6 4 4 3 4 7 10 15 13 1 7 6 5 9 18 22 16 14 16 18 22 18 11 6 7 13 17 16 13 13 14 14 13 13 15 16 16 16 16 16 14 12 9 6 4 3 5 7 9 12 16 21 27 33 36 38 40 41 41 41 42
6 7 5 5 4 2 5 6 7 13 7 4 4 10 17 20 22 22 19 16 15 18 21 17 13 13 15 18 19 16 14 15 14 13 12 12 12 13 14 14 14 14 14 14 14 12 10 7 3 3 6 9 11 16 22 26 28 31 34 37 38 39 40
5 5 6 5 5 2 6 6 4 9 3 5 9 17 24 23 19 16 17 15 9 14 20 19 19 21 21 18 17 15 14 14 13 12 12 11 10 10 11 12 13 13 12 12 12 12 11 9 7 4 2 4 8 13 18 21 23 27 30 32 34 36 38
5 6 6 4 5 1 5 3 1 3 3 9 15 16 18 18 18 17 16 12 4 10 21 24 23 22 21 18 16 15 14 13 12 12 11 10 9 8 8 9 10 11 10 10 10 9 9 8 7 6 4 1 4 8 13 16 20 23 26 28 31 33 36
4 4 4 5 8 7 8 9 7 6 11 16 19 17 14 15 19 18 14 9 4 6 15 21 21 19 19 18 16 15 14 13 13 11 10 9 8 7 6 6 6 6 7 8 7 7 6 6 5 5 5 3 1 4 8 11 14 16 19 23 27 30 32
5 3 3 8 10 9 10 13 14 15 17 19 21 20 17 17 18 15 10 7 4 3 7 14 18 17 16 17 16 15 15 14 12 11 9 8 7 6 4 3 3 4 3 3 3 3 3 2 1 2 4 4 4 4 5 7 9 11 13 16 20 24 27
6 3 4 6 8 9 10 12 17 19 19 18 19 20 17 17 16 13 9 8 7 5 5 11 16 16 15 17 17 15 15 14 13 12 10 9 8 6 4 2 0 1 2 3 3 3 4 4 4 5 6 7 7 8 8 9 10 11 12 13 16 19 22
7 3 4 7 9 9 13 18 20 20 19 17 16 18 16 14 12 11 12 13 13 12 9 10 16 18 17 18 18 18 17 16 14 14 12 11 9 8 6 4 2 0 1 2 4 5 7 8 9 9 9 10 10 11 12 14 14 15 15 15 16 17 19
7 3 4 8 7 6 13 20 22 19 18 16 13 14 16 14 9 10 14 18 19 16 11 9 14 18 19 20 20 20 19 18 17 16 16 14 13 11 9 7 6 4 3 2 1 3 5 7 9 10 11 12 13 14 15 17 17 18 18 18 17 17 16
6 4 6 9 6 2 6 14 20 19 15 12 9 10 14 15 11 9 16 22 23 20 14 10 10 16 20 22 23 24 23 22 21 21 20 20 19 16 13 11 9 8 8 7 5 4 4 4 5 6 8 11 12 14 16 18 19 20 20 21 21 20 19
9 8 9 12 9 5 7 13 19 18 10 7 8 12 12 12 13 10 15 24 27 24 18 11 10 17 23 24 25 27 26 24 24 23 23 23 22 20 18 16 15 14 13 11 10 9 8 8 7 5 5 5 6 8 9 11 12 14 16 18 20 21 21
17 16 12 16 16 12 13 18 20 14 4 3 9 13 12 9 10 13 16 23 26 25 18 11 11 19 25 25 26 26 25 24 24 24 24 24 24 23 22 21 19 18 17 16 16 15 14 12 11 10 9 8 8 7 6 6 6 7 7 9 11 13 16
23 19 13 19 24 23 23 23 24 18 9 5 9 11 10 8 8 12 17 22 25 23 17 11 12 20 25 26 25 25 24 24 24 23 24 24 23 23 23 23 21 20 20 21 20 19 18 16 15 14 14 15 15 15 15 15 15 15 15 14 13 12 12
Wind_Direction
190 186 177 161 163 175 167 153 186 203 140 139 216 241 188 161 277 271 207 240 281 279 277 270 221 215 210 208 218 220 228 234 231 223 216 213 214 214 214 216 218 220 220 221 222 222 222 222 221 222 224 225 226 227 228 230 231 231 231 232 232 233 233
225 190 167 176 177 153 132 188 195 118 86 147 187 237 260 230 252 277 213 224 259 253 266 267 188 211 226 215 213 218 227 233 231 224 219 217 217 216 216 217 219 219 219 220 222 223 223 223 224 225 226 227 227 227 229 230 230 230 231 232 233 233 233
212 165 158 189 195 176 167 181 172 133 138 192 164 192 225 217 238 274 280 253 234 204 233 243 188 206 226 222 215 217 224 229 228 226 223 220 219 217 216 218 219 219 219 220 222 223 224 224 225 227 227 227 226 227 229 230 231 232 233 232 233 233 234
159 132 164 192 209 221 214 127 159 163 165 177 171 181 185 190 227 251 290 282 251 219 207 190 200 212 214 217 217 213 218 221 222 225 225 222 220 218 217 217 218 219 220 220 221 223 224 224 225 227 226 224 224 227 228 229 231 232 231 232 233 234 235
148 159 197 193 193 209 204 176 190 193 164 148 158 199 179 168 200 210 250 267 259 248 203 182 199 215 213 214 214 214 219 219 219 223 225 224 221 220 219 218 218 219 220 221 221 222 224 225 226 226 224 223 224 225 226 228 230 229 230 231 233 234 235
189 211 209 197 194 195 189 193 200 191 177 132 147 239 245 165 192 187 188 256 261 245 197 189 198 211 216 212 209 216 225 223 222 224 226 227 225 224 223 222 220 219 220 222 221 221 222 223 224 223 222 223 223 224 226 227 228 228 230 232 233 234 234
216 230 224 211 209 202 191 197 195 182 175 150 171 222 222 182 221 159 132 255 267 242 192 195 200 206 218 215 205 210 226 228 226 226 228 230 229 229 228 226 223 221 221 222 221 220 220 221 222 222 222 222 223 225 227 226 226 229 232 233 233 233 233
267 269 287 298 267 201 198 212 192 179 190 186 192 204 175 184 213 162 184 248 267 269 206 203 215 221 232 232 217 212 224 231 228 227 231 233 232 233 232 229 227 223 221 223 222 220 220 220 221 221 221 223 224 226 226 225 228 232 232 231 232 232 233
245 269 289 299 311 201 209 224 200 197 197 191 201 179 132 211 208 172 199 237 244 282 274 232 248 251 256 254 235 224 229 237 235 232 235 235 234 235 233 231 230 225 220 221 222 222 221 220 220 220 221 223 224 226 226 227 230 232 231 230 230 231 233
219 222 224 223 275 267 239 214 201 207 200 192 201 192 180 225 208 176 210 239 249 292 298 241 240 241 250 261 252 236 233 237 242 243 245 242 238 237 235 233 231 226 220 220 223 223 223 221 220 220 222 223 225 226 228 230 231 231 229 229 229 230 231
240 273 266 260 325 299 278 264 207 204 207 201 200 207 208 201 177 203 225 216 217 257 251 229 234 229 239 251 253 241 234 234 238 242 247 249 245 244 243 238 233 227 221 221 223 224 224 223 222 221 222 224 225 227 228 229 230 229 229 229 228 229 230
304 311 295 289 298 276 268 280 245 211 205 202 206 218 205 151 164 231 232 184 190 234 232 227 233 227 236 247 244 241 240 243 249 249 250 253 253 251 247 242 235 228 223 223 224 224 224 223 223 223 223 225 226 227 229 229 228 228 228 228 228 228 229
308 297 286 281 283 258 246 260 254 236 218 206 211 219 198 163 201 236 224 176 191 232 236 231 227 215 216 227 234 241 247 256 263 260 255 255 257 255 251 246 239 232 228 226 224 224 224 223 223 223 223 224 225 227 228 228 227 229 229 228 228 228 228
311 299 282 277 291 287 269 262 254 247 236 222 218 218 203 197 224 240 213 181 199 222 224 228 229 221 216 218 226 236 245 254 261 262 261 261 261 262 260 254 245 237 232 230 228 226 224 222 223 223 223 225 225 226 227 227 228 229 228 228 228 228 229
309 298 298 306 309 301 286 274 259 248 244 237 230 222 210 208 227 241 223 198 217 241 242 243 246 245 246 235 222 224 233 248 260 265 263 261 262 267 268 262 252 243 235 231 228 226 225 224 223 223 224 226 227 227 227 227 229 229 227 228 229 229 232
294 294 323 323 317 312 289 268 258 248 243 244 238 224 212 205 210 228 234 225 231 249 252 258 263 266 262 244 237 235 238 248 258 260 258 260 268 273 273 269 260 249 240 233 228 227 228 227 224 224 226 227 227 227 228 229 229 228 227 228 230 232 234
288 292 310 319 322 314 275 259 256 242 234 239 252 247 224 209 200 207 225 226 218 215 211 229 256 259 245 239 244 246 244 247 253 259 263 267 273 276 275 274 271 262 251 241 234 231 230 228 227 228 229 228 230 232 232 231 229 227 228 230 232 234 233
280 290 310 325 301 253 251 289 338 273 235 222 228 239 227 212 212 216 220 213 207 205 190 198 231 241 235 231 230 224 231 236 243 254 261 264 269 272 274 276 277 275 264 248 240 236 233 233 234 233 231 231 235 235 233 231 228 228 230 231 232 233 232
263 295 328 308 234 235 297 334 347 319 264 222 223 234 226 212 218 227 228 217 212 209 198 205 221 221 188 167 167 171 203 221 230 246 257 261 263 266 270 274 277 279 270 251 241 238 236 236 235 233 232 234 234 233 231 230 230 230 231 232 232 232 231
211 296 301 233 247 292 322 329 348 354 340 350 302 252 239 221 208 213 224 227 223 216 212 214 210 185 154 129 113 129 174 198 212 228 243 256 261 261 267 273 273 274 266 250 242 240 239 237 234 232 234 234 231 230 230 230 231 232 231 230 230 231 231
172 225 253 260 296 314 323 337 1 6 342 343 358 258 257 245 204 196 210 225 232 231 219 194 173 157 141 112 86 108 142 162 179 192 202 232 267 270 271 274 271 267 260 249 242 240 238 237 236 235 235 234 232 231 231 231 230 231 231 230 232 233 234
177 210 264 285 304 290 256 255 304 299 270 256 194 185 275 268 221 204 204 210 219 218 165 158 156 144 134 158 186 147 133 136 136 132 125 115 96 74 14 302 280 263 255 248 241 239 239 238 237 236 234 234 235 234 233 232 231 231 232 233 234 235 236
172 183 230 239 242 245 246 297 311 317 309 267 168 174 280 292 314 281 224 207 204 189 163 157 153 144 158 211 216 173 140 128 123 118 112 102 93 84 75 62 40 18 254 234 227 230 237 240 239 238 236 235 236 236 235 233 232 233 235 237 238 239 239
185 192 221 240 241 250 297 321 319 323 325 321 152 207 260 320 339 321 278 226 210 183 165 160 160 173 193 194 186 168 144 125 119 116 108 100 94 87 79 72 63 62 74 111 168 198 220 233 239 242 242 243 242 240 238 235 234 236 240 243 243 243 240
202 201 224 260 250 259 315 318 325 335 334 290 166 215 276 323 317 309 299 265 230 188 167 168 177 187 172 157 157 155 138 122 117 112 104 97 91 86 82 78 74 71 73 78 86 100 134 193 228 237 242 246 246 244 241 238 239 243 245 245 243 240 238
216 199 218 258 251 291 329 312 349 10 5 195 211 300 308 307 299 302 315 299 248 191 168 168 161 142 139 144 146 144 134 125 117 109 108 105 96 91 88 83 82 78 74 75 75 75 77 82 109 197 229 240 244 246 246 247 251 254 252 249 247 244 242
216 195 204 228 227 281 332 313 0 37 34 257 299 310 305 307 311 318 333 327 269 185 157 146 140 137 137 139 139 134 128 123 116 113 117 115 108 102 95 86 84 82 78 77 73 68 65 65 72 90 150 215 232 246 252 257 260 259 256 255 253 250 248
201 194 203 202 190 178 26 29 148 93 22 326 329 318 305 322 344 346 343 343 310 168 146 137 136 137 135 134 135 131 125 122 119 115 111 107 104 100 89 84 85 86 86 82 75 69 62 53 48 49 53 108 217 240 249 254 255 255 254 255 254 253 252
239 225 203 145 138 124 89 92 113 88 46 18 359 340 323 340 359 359 356 6 38 136 136 131 129 128 127 129 129 125 120 116 112 109 103 98 95 87 79 76 72 77 88 89 86 84 73 55 39 24 20 20 290 246 247 251 255 255 254 253 251 251 253
269 255 150 129 128 128 116 103 89 69 52 35 14 358 355 7 11 11 15 29 53 116 128 123 121 119 119 120 117 114 112 108 103 102 97 92 88 85 86 75 34 27 45 63 84 100 91 74 10 334 328 322 314 289 269 268 268 266 264 261 257 255 254
263 232 155 135 135 137 128 100 73 58 51 41 19 5 13 24 20 21 47 74 81 82 100 116 117 115 114 112 108 105 103 99 95 92 87 84 86 85 91 97 72 274 270 280 281 284 291 286 284 290 291 295 299 294 287 283 277 274 274 271 268 265 261
263 220 162 152 144 119 93 81 68 54 49 43 21 7 18 36 36 38 60 80 83 75 77 102 110 109 108 107 103 99 94 88 82 78 73 71 73 73 70 65 58 54 234 243 250 260 271 277 284 291 292 291 290 286 283 280 276 276 277 273 271 270 265
271 233 186 169 154 91 69 75 73 61 47 40 28 17 16 23 41 68 77 81 80 74 68 84 102 106 106 105 101 96 91 84 77 73 69 66 66 65 59 48 34 20 12 5 303 263 260 265 274 282 286 288 288 286 285 284 282 281 280 278 280 280 274
255 217 195 183 168 113 89 91 80 65 47 32 41 50 32 16 18 68 97 97 91 83 73 67 90 102 102 99 96 91 86 83 79 76 74 72 69 65 60 55 46 36 26 17 6 354 335 314 298 289 284 282 282 282 283 284 284 284 282 281 282 284 284
268 259 212 176 147 122 136 111 81 62 42 28 52 63 53 27 11 33 88 99 95 90 82 68 79 94 94 92 91 88 86 84 81 79 77 74 70 66 61 57 54 51 48 45 43 40 35 29 24 11 343 318 300 290 286 284 286 286 284 281 279 279 281
274 266 213 159 132 122 129 115 94 78 66 82 74 64 57 46 26 31 63 85 90 92 90 78 81 93 94 91 89 88 86 84 81 77 75 71 68 64 58 54 54 57 59 61 61 60 58 55 51 47 42 40 41 42 35 21 6 353 337 319 305 296 292
254 252 207 153 134 129 125 116 111 116 126 109 85 75 62 54 51 50 60 73 83 91 93 85 86 95 96 94 91 89 88 86 82 79 76 73 69 65 60 56 55 58 63 66 67 66 64 63 60 59 60 61 62 63 62 58 52 46 41 34 22 7 346